Location: Bukit Setapoh
(2.2500°N, 113.8000°E)
Time: 00:48:34
(UTC+00:00)

Cosmos 836 Rocket - Pass Details

Date: 25 July 2021
Orbit: 757 x 778 km, 74.1° (Epoch: 22 September)

Event Time Altitude Azimuth Distance (km) Brightness Sun altitude
Rises 11:26:47 0° 192° (SSW) 3,250 7.7 -12.3°
Reaches altitude 10° 11:29:10 10° 192° (SSW) 2,318 6.9 -12.8°
Maximum altitude 11:34:27 89° 277° (W) 774 4.5 -14.0°
Drops below altitude 10° 11:39:41 10° 12° (NNE) 2,298 7.1 -15.3°
Sets 11:42:02 0° 12° (NNE) 3,219 7.8 -15.8°
